Time,TemperatureF,DewpointF,PressureIn,WindDirection,WindDirectionDegrees,WindSpeedMPH,WindSpeedGustMPH,Humidity,HourlyPrecipIn,Conditions,Clouds,dailyrainin,SoftwareType,DateUTC
2013-05-23 00:00:00,51.7,48.3,30.04,N/A,-737280,0.0,-999.0,88,0.05,,,0.04,Wunderground v.1.15,2013-05-23 07:00:00,
2013-05-23 00:05:00,51.7,48.3,30.04,N/A,-737280,0.0,-999.0,88,0.05,,,0.04,Wunderground v.1.15,2013-05-23 07:05:00,
2013-05-23 00:10:00,51.7,48.3,30.04,N/A,-737280,0.0,-999.0,88,0.05,,,0.04,Wunderground v.1.15,2013-05-23 07:10:00,
2013-05-23 00:15:00,51.7,48.3,30.04,N/A,-737280,0.0,-999.0,88,0.01,,,0.04,Wunderground v.1.15,2013-05-23 07:15:00,
2013-05-23 00:20:00,51.7,48.3,30.04,N/A,-737280,0.0,-999.0,88,0.01,,,0.04,Wunderground v.1.15,2013-05-23 07:20:00,
2013-05-23 00:25:00,51.7,48.3,30.04,N/A,-737280,0.0,-999.0,88,0.01,,,0.04,Wunderground v.1.15,2013-05-23 07:25:00,
2013-05-23 00:30:00,51.7,48.3,30.04,N/A,-737280,0.0,-999.0,88,0.01,,,0.04,Wunderground v.1.15,2013-05-23 07:30:00,
2013-05-23 00:35:00,51.7,48.3,30.04,N/A,-737280,0.0,-999.0,88,0.01,,,0.04,Wunderground v.1.15,2013-05-23 07:35:00,
2013-05-23 00:40:00,51.7,48.3,30.04,N/A,-737280,0.0,-999.0,88,0.01,,,0.04,Wunderground v.1.15,2013-05-23 07:40:00,
2013-05-23 00:45:00,51.5,48.4,30.03,N/A,-737280,0.0,-999.0,89,0.00,,,0.04,Wunderground v.1.15,2013-05-23 07:45:00,
2013-05-23 00:50:00,51.5,48.4,30.03,N/A,-737280,0.0,-999.0,89,0.00,,,0.04,Wunderground v.1.15,2013-05-23 07:50:00,
2013-05-23 00:55:00,51.5,48.4,30.03,N/A,-737280,0.0,-999.0,89,0.00,,,0.04,Wunderground v.1.15,2013-05-23 07:55:00,
2013-05-23 01:00:00,51.5,48.4,30.03,N/A,-737280,0.0,-999.0,89,0.00,,,0.04,Wunderground v.1.15,2013-05-23 08:00:00,
2013-05-23 01:05:00,51.5,48.4,30.03,N/A,-737280,0.0,-999.0,89,0.00,,,0.04,Wunderground v.1.15,2013-05-23 08:05:00,
2013-05-23 01:10:00,51.5,48.4,30.03,N/A,-737280,0.0,-999.0,89,0.00,,,0.04,Wunderground v.1.15,2013-05-23 08:10:00,
2013-05-23 01:15:00,51.6,48.5,30.04,N/A,-737280,0.0,-999.0,89,0.00,,,0.04,Wunderground v.1.15,2013-05-23 08:15:00,
2013-05-23 01:20:00,51.6,48.5,30.04,N/A,-737280,0.0,-999.0,89,0.00,,,0.04,Wunderground v.1.15,2013-05-23 08:20:00,
2013-05-23 01:25:00,51.6,48.5,30.04,N/A,-737280,0.0,-999.0,89,0.00,,,0.04,Wunderground v.1.15,2013-05-23 08:25:00,
2013-05-23 01:30:00,51.6,48.5,30.04,N/A,-737280,0.0,-999.0,89,0.00,,,0.04,Wunderground v.1.15,2013-05-23 08:30:00,
2013-05-23 01:35:00,51.6,48.5,30.04,N/A,-737280,0.0,-999.0,89,0.00,,,0.04,Wunderground v.1.15,2013-05-23 08:35:00,
2013-05-23 01:40:00,51.6,48.5,30.04,N/A,-737280,0.0,-999.0,89,0.00,,,0.04,Wunderground v.1.15,2013-05-23 08:40:00,
2013-05-23 01:45:00,51.5,48.4,30.04,North,0,0.0,-999.0,89,0.00,,,0.04,Wunderground v.1.15,2013-05-23 08:45:00,
2013-05-23 01:50:00,51.5,48.4,30.04,North,0,0.0,-999.0,89,0.00,,,0.04,Wunderground v.1.15,2013-05-23 08:50:00,
2013-05-23 01:55:00,51.5,48.4,30.04,North,0,0.0,-999.0,89,0.00,,,0.04,Wunderground v.1.15,2013-05-23 08:55:00,
2013-05-23 02:00:00,51.5,48.4,30.04,North,0,0.0,-999.0,89,0.00,,,0.04,Wunderground v.1.15,2013-05-23 09:00:00,
2013-05-23 02:05:00,51.5,48.4,30.04,North,0,0.0,-999.0,89,0.00,,,0.04,Wunderground v.1.15,2013-05-23 09:05:00,
2013-05-23 02:10:00,51.5,48.4,30.04,North,0,0.0,-999.0,89,0.00,,,0.04,Wunderground v.1.15,2013-05-23 09:10:00,
2013-05-23 02:15:00,51.5,48.1,30.04,NNE,23,0.0,-999.0,88,0.00,,,0.04,Wunderground v.1.15,2013-05-23 09:15:00,
2013-05-23 02:20:00,51.5,48.1,30.04,NNE,23,0.0,-999.0,88,0.00,,,0.04,Wunderground v.1.15,2013-05-23 09:20:00,
2013-05-23 02:25:00,51.5,48.1,30.04,NNE,23,0.0,-999.0,88,0.00,,,0.04,Wunderground v.1.15,2013-05-23 09:25:00,
2013-05-23 02:30:00,51.5,48.1,30.04,NNE,23,0.0,-999.0,88,0.00,,,0.04,Wunderground v.1.15,2013-05-23 09:30:00,
2013-05-23 02:35:00,51.5,48.1,30.04,NNE,23,0.0,-999.0,88,0.00,,,0.04,Wunderground v.1.15,2013-05-23 09:35:00,
2013-05-23 02:40:00,51.5,48.1,30.04,NNE,23,0.0,-999.0,88,0.00,,,0.04,Wunderground v.1.15,2013-05-23 09:40:00,
2013-05-23 02:45:00,51.2,47.8,30.05,East,90,0.0,-999.0,88,0.00,,,0.04,Wunderground v.1.15,2013-05-23 09:45:00,
2013-05-23 02:50:00,51.2,47.8,30.05,East,90,0.0,-999.0,88,0.00,,,0.04,Wunderground v.1.15,2013-05-23 09:50:00,
2013-05-23 02:55:00,51.2,47.8,30.05,East,90,0.0,-999.0,88,0.00,,,0.04,Wunderground v.1.15,2013-05-23 09:55:00,
2013-05-23 03:00:00,51.2,47.8,30.05,East,90,0.0,-999.0,88,0.00,,,0.04,Wunderground v.1.15,2013-05-23 10:00:00,
2013-05-23 03:05:00,51.2,47.8,30.05,East,90,0.0,-999.0,88,0.00,,,0.04,Wunderground v.1.15,2013-05-23 10:05:00,
2013-05-23 03:10:00,51.2,47.8,30.05,East,90,0.0,-999.0,88,0.00,,,0.04,Wunderground v.1.15,2013-05-23 10:10:00,
2013-05-23 03:15:00,51.1,47.1,30.05,NE,45,0.0,-999.0,86,0.00,,,0.04,Wunderground v.1.15,2013-05-23 10:15:00,
2013-05-23 03:20:00,51.1,47.1,30.05,NE,45,0.0,-999.0,86,0.00,,,0.04,Wunderground v.1.15,2013-05-23 10:20:00,
2013-05-23 03:25:00,51.1,47.1,30.05,NE,45,0.0,-999.0,86,0.00,,,0.04,Wunderground v.1.15,2013-05-23 10:25:00,
2013-05-23 03:30:00,51.1,47.1,30.05,NE,45,0.0,-999.0,86,0.00,,,0.04,Wunderground v.1.15,2013-05-23 10:30:00,
2013-05-23 03:35:00,51.1,47.1,30.05,NE,45,0.0,-999.0,86,0.00,,,0.04,Wunderground v.1.15,2013-05-23 10:35:00,
2013-05-23 03:40:00,51.1,47.1,30.05,NE,45,0.0,-999.0,86,0.00,,,0.04,Wunderground v.1.15,2013-05-23 10:40:00,
2013-05-23 03:45:00,50.8,47.1,30.04,N/A,-737280,0.0,-999.0,87,0.00,,,0.04,Wunderground v.1.15,2013-05-23 10:45:00,
2013-05-23 03:50:00,50.8,47.1,30.04,N/A,-737280,0.0,-999.0,87,0.00,,,0.04,Wunderground v.1.15,2013-05-23 10:50:00,
2013-05-23 03:55:00,50.8,47.1,30.04,N/A,-737280,0.0,-999.0,87,0.00,,,0.04,Wunderground v.1.15,2013-05-23 10:55:00,
2013-05-23 04:00:00,50.8,47.1,30.04,N/A,-737280,0.0,-999.0,87,0.00,,,0.04,Wunderground v.1.15,2013-05-23 11:00:00,
2013-05-23 04:05:00,50.8,47.1,30.04,N/A,-737280,0.0,-999.0,87,0.00,,,0.04,Wunderground v.1.15,2013-05-23 11:05:00,
2013-05-23 04:10:00,50.8,47.1,30.04,N/A,-737280,0.0,-999.0,87,0.00,,,0.04,Wunderground v.1.15,2013-05-23 11:10:00,
2013-05-23 04:15:00,50.8,47.1,30.05,N/A,-737280,0.0,-999.0,87,0.00,,,0.04,Wunderground v.1.15,2013-05-23 11:15:00,
2013-05-23 04:20:00,50.8,47.1,30.05,N/A,-737280,0.0,-999.0,87,0.00,,,0.04,Wunderground v.1.15,2013-05-23 11:20:00,
2013-05-23 04:25:00,50.8,47.1,30.05,N/A,-737280,0.0,-999.0,87,0.00,,,0.04,Wunderground v.1.15,2013-05-23 11:25:00,
2013-05-23 04:30:00,50.8,47.1,30.05,N/A,-737280,0.0,-999.0,87,0.00,,,0.04,Wunderground v.1.15,2013-05-23 11:30:00,
2013-05-23 04:35:00,50.8,47.1,30.05,N/A,-737280,0.0,-999.0,87,0.00,,,0.04,Wunderground v.1.15,2013-05-23 11:35:00,
2013-05-23 04:40:00,50.8,47.1,30.05,N/A,-737280,0.0,-999.0,87,0.00,,,0.04,Wunderground v.1.15,2013-05-23 11:40:00,
2013-05-23 04:45:00,50.7,47.0,30.05,NNE,23,0.0,-999.0,87,0.00,,,0.04,Wunderground v.1.15,2013-05-23 11:45:00,
2013-05-23 04:50:00,50.7,47.0,30.05,NNE,23,0.0,-999.0,87,0.00,,,0.04,Wunderground v.1.15,2013-05-23 11:50:00,
2013-05-23 04:55:00,50.7,47.0,30.05,NNE,23,0.0,-999.0,87,0.00,,,0.04,Wunderground v.1.15,2013-05-23 11:55:00,
2013-05-23 05:00:00,50.7,47.0,30.05,NNE,23,0.0,-999.0,87,0.00,,,0.04,Wunderground v.1.15,2013-05-23 12:00:00,
2013-05-23 05:05:00,50.7,47.0,30.05,NNE,23,0.0,-999.0,87,0.00,,,0.04,Wunderground v.1.15,2013-05-23 12:05:00,
2013-05-23 05:10:00,50.7,47.0,30.05,NNE,23,0.0,-999.0,87,0.00,,,0.04,Wunderground v.1.15,2013-05-23 12:10:00,
2013-05-23 05:15:00,50.7,47.0,30.06,N/A,-737280,0.0,-999.0,87,0.00,,,0.04,Wunderground v.1.15,2013-05-23 12:15:00,
2013-05-23 05:20:00,50.7,47.0,30.06,N/A,-737280,0.0,-999.0,87,0.00,,,0.04,Wunderground v.1.15,2013-05-23 12:20:00,
2013-05-23 05:25:00,50.7,47.0,30.06,N/A,-737280,0.0,-999.0,87,0.00,,,0.04,Wunderground v.1.15,2013-05-23 12:25:00,
2013-05-23 05:30:00,50.7,47.0,30.06,N/A,-737280,0.0,-999.0,87,0.00,,,0.04,Wunderground v.1.15,2013-05-23 12:30:00,
2013-05-23 05:35:00,50.7,47.0,30.06,N/A,-737280,0.0,-999.0,87,0.00,,,0.04,Wunderground v.1.15,2013-05-23 12:35:00,
2013-05-23 05:40:00,50.7,47.0,30.06,N/A,-737280,0.0,-999.0,87,0.00,,,0.04,Wunderground v.1.15,2013-05-23 12:40:00,
2013-05-23 05:45:00,50.9,47.2,30.05,NNE,23,0.0,-999.0,87,0.00,,,0.04,Wunderground v.1.15,2013-05-23 12:45:00,
2013-05-23 05:50:00,50.9,47.2,30.05,NNE,23,0.0,-999.0,87,0.00,,,0.04,Wunderground v.1.15,2013-05-23 12:50:00,
2013-05-23 05:55:00,50.9,47.2,30.05,NNE,23,0.0,-999.0,87,0.00,,,0.04,Wunderground v.1.15,2013-05-23 12:55:00,
2013-05-23 06:00:00,50.9,47.2,30.05,NNE,23,0.0,-999.0,87,0.00,,,0.04,Wunderground v.1.15,2013-05-23 13:00:00,
2013-05-23 06:05:00,50.9,47.2,30.05,NNE,23,0.0,-999.0,87,0.00,,,0.04,Wunderground v.1.15,2013-05-23 13:05:00,
2013-05-23 06:10:00,50.9,47.2,30.05,NNE,23,0.0,-999.0,87,0.00,,,0.04,Wunderground v.1.15,2013-05-23 13:10:00,
2013-05-23 06:15:00,51.3,47.6,30.05,SSW,203,0.0,-999.0,87,0.00,,,0.04,Wunderground v.1.15,2013-05-23 13:15:00,
2013-05-23 06:20:00,51.3,47.6,30.05,SSW,203,0.0,-999.0,87,0.00,,,0.04,Wunderground v.1.15,2013-05-23 13:20:00,
2013-05-23 06:25:00,51.3,47.6,30.05,SSW,203,0.0,-999.0,87,0.00,,,0.04,Wunderground v.1.15,2013-05-23 13:25:00,
2013-05-23 06:30:00,51.3,47.6,30.05,SSW,203,0.0,-999.0,87,0.00,,,0.04,Wunderground v.1.15,2013-05-23 13:30:00,
2013-05-23 06:35:00,51.3,47.6,30.05,SSW,203,0.0,-999.0,87,0.00,,,0.04,Wunderground v.1.15,2013-05-23 13:35:00,
2013-05-23 06:40:00,51.3,47.6,30.05,SSW,203,0.0,-999.0,87,0.00,,,0.04,Wunderground v.1.15,2013-05-23 13:40:00,
2013-05-23 06:45:00,51.7,47.3,30.06,NE,45,0.0,-999.0,85,0.00,,,0.04,Wunderground v.1.15,2013-05-23 13:45:00,
2013-05-23 06:50:00,51.7,47.3,30.06,NE,45,0.0,-999.0,85,0.00,,,0.04,Wunderground v.1.15,2013-05-23 13:50:00,
2013-05-23 06:55:00,51.7,47.3,30.06,NE,45,0.0,-999.0,85,0.00,,,0.04,Wunderground v.1.15,2013-05-23 13:55:00,
2013-05-23 07:00:00,51.7,47.3,30.06,NE,45,0.0,-999.0,85,0.00,,,0.04,Wunderground v.1.15,2013-05-23 14:00:00,
2013-05-23 07:05:00,51.7,47.3,30.06,NE,45,0.0,-999.0,85,0.00,,,0.04,Wunderground v.1.15,2013-05-23 14:05:00,
2013-05-23 07:10:00,51.7,47.3,30.06,NE,45,0.0,-999.0,85,0.00,,,0.04,Wunderground v.1.15,2013-05-23 14:10:00,
2013-05-23 07:15:00,52.3,47.3,30.06,NNE,23,0.0,-999.0,83,0.00,,,0.04,Wunderground v.1.15,2013-05-23 14:15:00,
2013-05-23 07:20:00,52.3,47.3,30.06,NNE,23,0.0,-999.0,83,0.00,,,0.04,Wunderground v.1.15,2013-05-23 14:20:00,
2013-05-23 07:25:00,52.3,47.3,30.06,NNE,23,0.0,-999.0,83,0.00,,,0.04,Wunderground v.1.15,2013-05-23 14:25:00,
2013-05-23 07:30:00,52.3,47.3,30.06,NNE,23,0.0,-999.0,83,0.00,,,0.04,Wunderground v.1.15,2013-05-23 14:30:00,
2013-05-23 07:35:00,52.3,47.3,30.06,NNE,23,0.0,-999.0,83,0.00,,,0.04,Wunderground v.1.15,2013-05-23 14:35:00,
2013-05-23 07:40:00,52.3,47.3,30.06,NNE,23,0.0,-999.0,83,0.00,,,0.04,Wunderground v.1.15,2013-05-23 14:40:00,
2013-05-23 07:45:00,52.9,47.6,30.06,NE,45,0.0,-999.0,82,0.00,,,0.04,Wunderground v.1.15,2013-05-23 14:45:00,
2013-05-23 07:50:00,52.9,47.6,30.06,NE,45,0.0,-999.0,82,0.00,,,0.04,Wunderground v.1.15,2013-05-23 14:50:00,
2013-05-23 07:55:00,52.9,47.6,30.06,NE,45,0.0,-999.0,82,0.00,,,0.04,Wunderground v.1.15,2013-05-23 14:55:00,
2013-05-23 08:00:00,52.9,47.6,30.06,NE,45,0.0,-999.0,82,0.00,,,0.04,Wunderground v.1.15,2013-05-23 15:00:00,
2013-05-23 08:05:00,52.9,47.6,30.06,NE,45,0.0,-999.0,82,0.00,,,0.04,Wunderground v.1.15,2013-05-23 15:05:00,
2013-05-23 08:10:00,52.9,47.6,30.06,NE,45,0.0,-999.0,82,0.00,,,0.04,Wunderground v.1.15,2013-05-23 15:10:00,
2013-05-23 08:15:00,53.4,46.7,30.06,NE,45,0.0,-999.0,78,0.00,,,0.04,Wunderground v.1.15,2013-05-23 15:15:00,
2013-05-23 08:20:00,53.4,46.7,30.06,NE,45,0.0,-999.0,78,0.00,,,0.04,Wunderground v.1.15,2013-05-23 15:20:00,
2013-05-23 08:25:00,53.4,46.7,30.06,NE,45,0.0,-999.0,78,0.00,,,0.04,Wunderground v.1.15,2013-05-23 15:25:00,
2013-05-23 08:30:00,53.4,46.7,30.06,NE,45,0.0,-999.0,78,0.00,,,0.04,Wunderground v.1.15,2013-05-23 15:30:00,
2013-05-23 08:35:00,53.4,46.7,30.06,NE,45,0.0,-999.0,78,0.00,,,0.04,Wunderground v.1.15,2013-05-23 15:35:00,
2013-05-23 08:40:00,53.4,46.7,30.06,NE,45,0.0,-999.0,78,0.00,,,0.04,Wunderground v.1.15,2013-05-23 15:40:00,
2013-05-23 08:45:00,54.0,48.0,30.06,NE,45,0.0,-999.0,80,0.00,,,0.04,Wunderground v.1.15,2013-05-23 15:45:00,
2013-05-23 08:50:00,54.0,48.0,30.06,NE,45,0.0,-999.0,80,0.00,,,0.04,Wunderground v.1.15,2013-05-23 15:50:00,
2013-05-23 08:55:00,54.0,48.0,30.06,NE,45,0.0,-999.0,80,0.00,,,0.04,Wunderground v.1.15,2013-05-23 15:55:00,
2013-05-23 09:00:00,54.0,48.0,30.06,NE,45,0.0,-999.0,80,0.00,,,0.04,Wunderground v.1.15,2013-05-23 16:00:00,
2013-05-23 09:05:00,54.0,48.0,30.06,NE,45,0.0,-999.0,80,0.00,,,0.04,Wunderground v.1.15,2013-05-23 16:05:00,
2013-05-23 09:10:00,54.0,48.0,30.06,NE,45,0.0,-999.0,80,0.00,,,0.04,Wunderground v.1.15,2013-05-23 16:10:00,
2013-05-23 09:15:00,54.8,48.1,30.06,NE,45,0.0,-999.0,78,0.00,,,0.04,Wunderground v.1.15,2013-05-23 16:15:00,
2013-05-23 09:20:00,54.8,48.1,30.06,NE,45,0.0,-999.0,78,0.00,,,0.04,Wunderground v.1.15,2013-05-23 16:20:00,
2013-05-23 09:25:00,54.8,48.1,30.06,NE,45,0.0,-999.0,78,0.00,,,0.04,Wunderground v.1.15,2013-05-23 16:25:00,
2013-05-23 09:30:00,54.8,48.1,30.06,NE,45,0.0,-999.0,78,0.00,,,0.04,Wunderground v.1.15,2013-05-23 16:30:00,
2013-05-23 09:35:00,54.8,48.1,30.06,NE,45,0.0,-999.0,78,0.00,,,0.04,Wunderground v.1.15,2013-05-23 16:35:00,
2013-05-23 09:40:00,54.8,48.1,30.06,NE,45,0.0,-999.0,78,0.00,,,0.04,Wunderground v.1.15,2013-05-23 16:40:00,
2013-05-23 09:45:00,56.0,48.9,30.06,NE,45,0.0,-999.0,77,0.00,,,0.04,Wunderground v.1.15,2013-05-23 16:45:00,
2013-05-23 09:50:00,56.0,48.9,30.06,NE,45,0.0,-999.0,77,0.00,,,0.04,Wunderground v.1.15,2013-05-23 16:50:00,
2013-05-23 09:55:00,56.0,48.9,30.06,NE,45,0.0,-999.0,77,0.00,,,0.04,Wunderground v.1.15,2013-05-23 16:55:00,
2013-05-23 10:00:00,56.0,48.9,30.06,NE,45,0.0,-999.0,77,0.00,,,0.04,Wunderground v.1.15,2013-05-23 17:00:00,
2013-05-23 10:05:00,56.0,48.9,30.06,NE,45,0.0,-999.0,77,0.00,,,0.04,Wunderground v.1.15,2013-05-23 17:05:00,
2013-05-23 10:10:00,56.0,48.9,30.06,NE,45,0.0,-999.0,77,0.00,,,0.04,Wunderground v.1.15,2013-05-23 17:10:00,
2013-05-23 10:15:00,57.1,49.6,30.06,NE,45,0.0,-999.0,76,0.01,,,0.04,Wunderground v.1.15,2013-05-23 17:15:00,
2013-05-23 10:20:00,57.1,49.6,30.06,NE,45,0.0,-999.0,76,0.01,,,0.04,Wunderground v.1.15,2013-05-23 17:20:00,
2013-05-23 10:25:00,57.1,49.6,30.06,NE,45,0.0,-999.0,76,0.01,,,0.04,Wunderground v.1.15,2013-05-23 17:25:00,
2013-05-23 10:30:00,57.1,49.6,30.06,NE,45,0.0,-999.0,76,0.01,,,0.04,Wunderground v.1.15,2013-05-23 17:30:00,
2013-05-23 10:35:00,57.1,49.6,30.06,NE,45,0.0,-999.0,76,0.01,,,0.04,Wunderground v.1.15,2013-05-23 17:35:00,
2013-05-23 10:40:00,57.1,49.6,30.06,NE,45,0.0,-999.0,76,0.01,,,0.04,Wunderground v.1.15,2013-05-23 17:40:00,
2013-05-23 10:45:00,58.7,50.1,30.06,NE,45,1.0,-999.0,73,0.01,,,0.04,Wunderground v.1.15,2013-05-23 17:45:00,
2013-05-23 10:50:00,58.7,50.1,30.06,NE,45,1.0,-999.0,73,0.01,,,0.04,Wunderground v.1.15,2013-05-23 17:50:00,
2013-05-23 10:55:00,58.7,50.1,30.06,NE,45,1.0,-999.0,73,0.01,,,0.04,Wunderground v.1.15,2013-05-23 17:55:00,
2013-05-23 11:00:00,58.7,50.1,30.06,NE,45,1.0,-999.0,73,0.01,,,0.04,Wunderground v.1.15,2013-05-23 18:00:00,
2013-05-23 11:05:00,58.7,50.1,30.06,NE,45,1.0,-999.0,73,0.01,,,0.04,Wunderground v.1.15,2013-05-23 18:05:00,
2013-05-23 11:10:00,58.7,50.1,30.06,NE,45,1.0,-999.0,73,0.01,,,0.04,Wunderground v.1.15,2013-05-23 18:10:00,
2013-05-23 11:15:00,59.8,50.0,30.05,East,90,0.0,-999.0,70,0.00,,,0.04,Wunderground v.1.15,2013-05-23 18:15:00,
2013-05-23 11:20:00,59.8,50.0,30.05,East,90,0.0,-999.0,70,0.00,,,0.04,Wunderground v.1.15,2013-05-23 18:20:00,
2013-05-23 11:25:00,59.8,50.0,30.05,East,90,0.0,-999.0,70,0.00,,,0.04,Wunderground v.1.15,2013-05-23 18:25:00,
2013-05-23 11:30:00,59.8,50.0,30.05,East,90,0.0,-999.0,70,0.00,,,0.04,Wunderground v.1.15,2013-05-23 18:30:00,
2013-05-23 11:35:00,59.8,50.0,30.05,East,90,0.0,-999.0,70,0.00,,,0.04,Wunderground v.1.15,2013-05-23 18:35:00,
2013-05-23 11:40:00,59.8,50.0,30.05,East,90,0.0,-999.0,70,0.00,,,0.04,Wunderground v.1.15,2013-05-23 18:40:00,
2013-05-23 11:45:00,60.7,50.9,30.05,ENE,68,0.0,-999.0,70,0.00,,,0.04,Wunderground v.1.15,2013-05-23 18:45:00,
2013-05-23 11:50:00,60.7,50.9,30.05,ENE,68,0.0,-999.0,70,0.00,,,0.04,Wunderground v.1.15,2013-05-23 18:50:00,
2013-05-23 11:55:00,60.7,50.9,30.05,ENE,68,0.0,-999.0,70,0.00,,,0.04,Wunderground v.1.15,2013-05-23 18:55:00,
2013-05-23 12:00:00,60.7,50.9,30.05,ENE,68,0.0,-999.0,70,0.00,,,0.04,Wunderground v.1.15,2013-05-23 19:00:00,
2013-05-23 12:05:00,60.7,50.9,30.05,ENE,68,0.0,-999.0,70,0.00,,,0.04,Wunderground v.1.15,2013-05-23 19:05:00,
2013-05-23 12:10:00,60.7,50.9,30.05,ENE,68,0.0,-999.0,70,0.00,,,0.04,Wunderground v.1.15,2013-05-23 19:10:00,
2013-05-23 12:15:00,62.4,50.5,30.05,NE,45,0.0,-999.0,65,0.00,,,0.04,Wunderground v.1.15,2013-05-23 19:15:00,
2013-05-23 12:20:00,62.4,50.5,30.05,NE,45,0.0,-999.0,65,0.00,,,0.04,Wunderground v.1.15,2013-05-23 19:20:00,
2013-05-23 12:25:00,62.4,50.5,30.05,NE,45,0.0,-999.0,65,0.00,,,0.04,Wunderground v.1.15,2013-05-23 19:25:00,
2013-05-23 12:30:00,62.4,50.5,30.05,NE,45,0.0,-999.0,65,0.00,,,0.04,Wunderground v.1.15,2013-05-23 19:30:00,
2013-05-23 12:35:00,62.4,50.5,30.05,NE,45,0.0,-999.0,65,0.00,,,0.04,Wunderground v.1.15,2013-05-23 19:35:00,
2013-05-23 12:40:00,62.4,50.5,30.05,NE,45,0.0,-999.0,65,0.00,,,0.04,Wunderground v.1.15,2013-05-23 19:40:00,
2013-05-23 12:45:00,63.5,50.2,30.05,NE,45,0.0,-999.0,62,0.00,,,0.04,Wunderground v.1.15,2013-05-23 19:45:00,
2013-05-23 12:50:00,63.5,50.2,30.05,NE,45,0.0,-999.0,62,0.00,,,0.04,Wunderground v.1.15,2013-05-23 19:50:00,
2013-05-23 12:55:00,63.5,50.2,30.05,NE,45,0.0,-999.0,62,0.00,,,0.04,Wunderground v.1.15,2013-05-23 19:55:00,
2013-05-23 13:00:00,63.5,50.2,30.05,NE,45,0.0,-999.0,62,0.00,,,0.04,Wunderground v.1.15,2013-05-23 20:00:00,
2013-05-23 13:05:00,63.5,50.2,30.05,NE,45,0.0,-999.0,62,0.00,,,0.04,Wunderground v.1.15,2013-05-23 20:05:00,
2013-05-23 13:10:00,63.5,50.2,30.05,NE,45,0.0,-999.0,62,0.00,,,0.04,Wunderground v.1.15,2013-05-23 20:10:00,
2013-05-23 13:15:00,64.6,50.4,30.06,N/A,-737280,0.0,-999.0,60,0.00,,,0.04,Wunderground v.1.15,2013-05-23 20:15:00,
2013-05-23 13:20:00,64.6,50.4,30.06,N/A,-737280,0.0,-999.0,60,0.00,,,0.04,Wunderground v.1.15,2013-05-23 20:20:00,
2013-05-23 13:25:00,64.6,50.4,30.06,N/A,-737280,0.0,-999.0,60,0.00,,,0.04,Wunderground v.1.15,2013-05-23 20:25:00,
2013-05-23 13:30:00,64.6,50.4,30.06,N/A,-737280,0.0,-999.0,60,0.00,,,0.04,Wunderground v.1.15,2013-05-23 20:30:00,
2013-05-23 13:35:00,64.6,50.4,30.06,N/A,-737280,0.0,-999.0,60,0.00,,,0.04,Wunderground v.1.15,2013-05-23 20:35:00,
2013-05-23 13:40:00,64.6,50.4,30.06,N/A,-737280,0.0,-999.0,60,0.00,,,0.04,Wunderground v.1.15,2013-05-23 20:40:00,
2013-05-23 13:45:00,65.3,51.1,30.06,East,90,0.0,-999.0,60,0.00,,,0.04,Wunderground v.1.15,2013-05-23 20:45:00,
2013-05-23 13:50:00,65.3,51.1,30.06,East,90,0.0,-999.0,60,0.00,,,0.04,Wunderground v.1.15,2013-05-23 20:50:00,
2013-05-23 13:55:00,65.3,51.1,30.06,East,90,0.0,-999.0,60,0.00,,,0.04,Wunderground v.1.15,2013-05-23 20:55:00,
2013-05-23 14:00:00,65.3,51.1,30.06,East,90,0.0,-999.0,60,0.00,,,0.04,Wunderground v.1.15,2013-05-23 21:00:00,
2013-05-23 14:05:00,65.3,51.1,30.06,East,90,0.0,-999.0,60,0.00,,,0.04,Wunderground v.1.15,2013-05-23 21:05:00,
2013-05-23 14:10:00,65.3,51.1,30.06,East,90,0.0,-999.0,60,0.00,,,0.04,Wunderground v.1.15,2013-05-23 21:10:00,
2013-05-23 14:15:00,62.9,49.2,30.06,ENE,68,0.0,-999.0,61,0.00,,,0.04,Wunderground v.1.15,2013-05-23 21:15:00,
2013-05-23 14:20:00,62.9,49.2,30.06,ENE,68,0.0,-999.0,61,0.00,,,0.04,Wunderground v.1.15,2013-05-23 21:20:00,
2013-05-23 14:25:00,62.9,49.2,30.06,ENE,68,0.0,-999.0,61,0.00,,,0.04,Wunderground v.1.15,2013-05-23 21:25:00,
2013-05-23 14:30:00,62.9,49.2,30.06,ENE,68,0.0,-999.0,61,0.00,,,0.04,Wunderground v.1.15,2013-05-23 21:30:00,
2013-05-23 14:35:00,62.9,49.2,30.06,ENE,68,0.0,-999.0,61,0.00,,,0.04,Wunderground v.1.15,2013-05-23 21:35:00,
2013-05-23 14:40:00,62.9,49.2,30.06,ENE,68,0.0,-999.0,61,0.00,,,0.04,Wunderground v.1.15,2013-05-23 21:40:00,
2013-05-23 14:45:00,60.9,47.4,30.05,SE,135,0.0,-999.0,61,0.00,,,0.04,Wunderground v.1.15,2013-05-23 21:45:00,
2013-05-23 14:50:00,60.9,47.4,30.05,SE,135,0.0,-999.0,61,0.00,,,0.04,Wunderground v.1.15,2013-05-23 21:50:00,
2013-05-23 14:55:00,60.9,47.4,30.05,SE,135,0.0,-999.0,61,0.00,,,0.04,Wunderground v.1.15,2013-05-23 21:55:00,
2013-05-23 15:00:00,60.9,47.4,30.05,SE,135,0.0,-999.0,61,0.00,,,0.04,Wunderground v.1.15,2013-05-23 22:00:00,
2013-05-23 15:05:00,60.9,47.4,30.05,SE,135,0.0,-999.0,61,0.00,,,0.04,Wunderground v.1.15,2013-05-23 22:05:00,
2013-05-23 15:10:00,60.9,47.4,30.05,SE,135,0.0,-999.0,61,0.00,,,0.04,Wunderground v.1.15,2013-05-23 22:10:00,
2013-05-23 15:15:00,60.5,49.1,30.05,N/A,-737280,0.0,-999.0,66,0.00,,,0.04,Wunderground v.1.15,2013-05-23 22:15:00,
2013-05-23 15:20:00,60.5,49.1,30.05,N/A,-737280,0.0,-999.0,66,0.00,,,0.04,Wunderground v.1.15,2013-05-23 22:20:00,
2013-05-23 15:25:00,60.5,49.1,30.05,N/A,-737280,0.0,-999.0,66,0.00,,,0.04,Wunderground v.1.15,2013-05-23 22:25:00,
2013-05-23 15:30:00,60.5,49.1,30.05,N/A,-737280,0.0,-999.0,66,0.00,,,0.04,Wunderground v.1.15,2013-05-23 22:30:00,
2013-05-23 15:35:00,60.5,49.1,30.05,N/A,-737280,0.0,-999.0,66,0.00,,,0.04,Wunderground v.1.15,2013-05-23 22:35:00,
2013-05-23 15:40:00,60.5,49.1,30.05,N/A,-737280,0.0,-999.0,66,0.00,,,0.04,Wunderground v.1.15,2013-05-23 22:40:00,
2013-05-23 15:45:00,60.0,49.0,30.06,N/A,-737280,0.0,-999.0,67,0.00,,,0.04,Wunderground v.1.15,2013-05-23 22:45:00,
2013-05-23 15:50:00,60.0,49.0,30.06,N/A,-737280,0.0,-999.0,67,0.00,,,0.04,Wunderground v.1.15,2013-05-23 22:50:00,
2013-05-23 15:55:00,60.0,49.0,30.06,N/A,-737280,0.0,-999.0,67,0.00,,,0.04,Wunderground v.1.15,2013-05-23 22:55:00,
2013-05-23 16:00:00,60.0,49.0,30.06,N/A,-737280,0.0,-999.0,67,0.00,,,0.04,Wunderground v.1.15,2013-05-23 23:00:00,
2013-05-23 16:05:00,60.0,49.0,30.06,N/A,-737280,0.0,-999.0,67,0.00,,,0.04,Wunderground v.1.15,2013-05-23 23:05:00,
2013-05-23 16:10:00,60.0,49.0,30.06,N/A,-737280,0.0,-999.0,67,0.00,,,0.04,Wunderground v.1.15,2013-05-23 23:10:00,
2013-05-23 16:15:00,59.7,47.1,30.06,NE,45,0.0,-999.0,63,0.00,,,0.04,Wunderground v.1.15,2013-05-23 23:15:00,
2013-05-23 16:20:00,59.7,47.1,30.06,NE,45,0.0,-999.0,63,0.00,,,0.04,Wunderground v.1.15,2013-05-23 23:20:00,
2013-05-23 16:25:00,59.7,47.1,30.06,NE,45,0.0,-999.0,63,0.00,,,0.04,Wunderground v.1.15,2013-05-23 23:25:00,
2013-05-23 16:30:00,59.7,47.1,30.06,NE,45,0.0,-999.0,63,0.00,,,0.04,Wunderground v.1.15,2013-05-23 23:30:00,
2013-05-23 16:35:00,59.7,47.1,30.06,NE,45,0.0,-999.0,63,0.00,,,0.04,Wunderground v.1.15,2013-05-23 23:35:00,
2013-05-23 16:40:00,59.7,47.1,30.06,NE,45,0.0,-999.0,63,0.00,,,0.04,Wunderground v.1.15,2013-05-23 23:40:00,
2013-05-23 16:45:00,59.4,49.2,30.07,NE,45,0.0,-999.0,69,0.00,,,0.04,Wunderground v.1.15,2013-05-23 23:45:00,
2013-05-23 16:50:00,59.4,49.2,30.07,NE,45,0.0,-999.0,69,0.00,,,0.04,Wunderground v.1.15,2013-05-23 23:50:00,
2013-05-23 16:55:00,59.4,49.2,30.07,NE,45,0.0,-999.0,69,0.00,,,0.04,Wunderground v.1.15,2013-05-23 23:55:00,
2013-05-23 17:00:00,59.4,49.2,30.07,NE,45,0.0,-999.0,69,0.00,,,0.04,Wunderground v.1.15,2013-05-24 00:00:00,
2013-05-23 17:05:00,59.4,49.2,30.07,NE,45,0.0,-999.0,69,0.00,,,0.04,Wunderground v.1.15,2013-05-24 00:05:00,
2013-05-23 17:10:00,59.4,49.2,30.07,NE,45,0.0,-999.0,69,0.00,,,0.04,Wunderground v.1.15,2013-05-24 00:10:00,
2013-05-23 17:15:00,58.0,51.2,30.05,SSE,158,0.0,-999.0,78,0.03,,,0.04,Wunderground v.1.15,2013-05-24 00:15:00,
2013-05-23 17:20:00,58.0,51.2,30.05,SSE,158,0.0,-999.0,78,0.03,,,0.04,Wunderground v.1.15,2013-05-24 00:20:00,
2013-05-23 17:25:00,58.0,51.2,30.05,SSE,158,0.0,-999.0,78,0.03,,,0.04,Wunderground v.1.15,2013-05-24 00:25:00,
2013-05-23 17:30:00,58.0,51.2,30.05,SSE,158,0.0,-999.0,78,0.03,,,0.04,Wunderground v.1.15,2013-05-24 00:30:00,
2013-05-23 17:35:00,58.0,51.2,30.05,SSE,158,0.0,-999.0,78,0.03,,,0.04,Wunderground v.1.15,2013-05-24 00:35:00,
2013-05-23 17:40:00,58.0,51.2,30.05,SSE,158,0.0,-999.0,78,0.03,,,0.04,Wunderground v.1.15,2013-05-24 00:40:00,
2013-05-23 17:45:00,57.5,48.5,30.06,NNE,23,0.0,-999.0,72,0.03,,,0.04,Wunderground v.1.15,2013-05-24 00:45:00,
2013-05-23 17:50:00,57.5,48.5,30.06,NNE,23,0.0,-999.0,72,0.03,,,0.04,Wunderground v.1.15,2013-05-24 00:50:00,
2013-05-23 17:55:00,57.5,48.5,30.06,NNE,23,0.0,-999.0,72,0.03,,,0.04,Wunderground v.1.15,2013-05-24 00:55:00,
2013-05-23 18:00:00,57.5,48.5,30.06,NNE,23,0.0,-999.0,72,0.03,,,0.04,Wunderground v.1.15,2013-05-24 01:00:00,
2013-05-23 18:05:00,57.5,48.5,30.06,NNE,23,0.0,-999.0,72,0.03,,,0.04,Wunderground v.1.15,2013-05-24 01:05:00,
2013-05-23 18:10:00,57.5,48.5,30.06,NNE,23,0.0,-999.0,72,0.03,,,0.04,Wunderground v.1.15,2013-05-24 01:10:00,
2013-05-23 18:15:00,57.6,50.1,30.06,East,90,0.0,-999.0,76,0.00,,,0.04,Wunderground v.1.15,2013-05-24 01:15:00,
2013-05-23 18:20:00,57.6,50.1,30.06,East,90,0.0,-999.0,76,0.00,,,0.04,Wunderground v.1.15,2013-05-24 01:20:00,
2013-05-23 18:25:00,57.6,50.1,30.06,East,90,0.0,-999.0,76,0.00,,,0.04,Wunderground v.1.15,2013-05-24 01:25:00,
2013-05-23 18:30:00,57.6,50.1,30.06,East,90,0.0,-999.0,76,0.00,,,0.04,Wunderground v.1.15,2013-05-24 01:30:00,
2013-05-23 18:35:00,57.6,50.1,30.06,East,90,0.0,-999.0,76,0.00,,,0.04,Wunderground v.1.15,2013-05-24 01:35:00,
2013-05-23 18:40:00,57.6,50.1,30.06,East,90,0.0,-999.0,76,0.00,,,0.04,Wunderground v.1.15,2013-05-24 01:40:00,
2013-05-23 18:45:00,56.1,48.3,30.06,NE,45,0.0,-999.0,75,0.00,,,0.04,Wunderground v.1.15,2013-05-24 01:45:00,
2013-05-23 18:50:00,56.1,48.3,30.06,NE,45,0.0,-999.0,75,0.00,,,0.04,Wunderground v.1.15,2013-05-24 01:50:00,
2013-05-23 18:55:00,56.1,48.3,30.06,NE,45,0.0,-999.0,75,0.00,,,0.04,Wunderground v.1.15,2013-05-24 01:55:00,
2013-05-23 19:00:00,56.1,48.3,30.06,NE,45,0.0,-999.0,75,0.00,,,0.04,Wunderground v.1.15,2013-05-24 02:00:00,
2013-05-23 19:05:00,56.1,48.3,30.06,NE,45,0.0,-999.0,75,0.00,,,0.04,Wunderground v.1.15,2013-05-24 02:05:00,
2013-05-23 19:10:00,56.1,48.3,30.06,NE,45,0.0,-999.0,75,0.00,,,0.04,Wunderground v.1.15,2013-05-24 02:10:00,
2013-05-23 19:15:00,55.5,47.3,30.06,NE,45,0.0,-999.0,74,0.00,,,0.04,Wunderground v.1.15,2013-05-24 02:15:00,
2013-05-23 19:20:00,55.5,47.3,30.06,NE,45,0.0,-999.0,74,0.00,,,0.04,Wunderground v.1.15,2013-05-24 02:20:00,
2013-05-23 19:25:00,55.5,47.3,30.06,NE,45,0.0,-999.0,74,0.00,,,0.04,Wunderground v.1.15,2013-05-24 02:25:00,
2013-05-23 19:30:00,55.5,47.3,30.06,NE,45,0.0,-999.0,74,0.00,,,0.04,Wunderground v.1.15,2013-05-24 02:30:00,
2013-05-23 19:35:00,55.5,47.3,30.06,NE,45,0.0,-999.0,74,0.00,,,0.04,Wunderground v.1.15,2013-05-24 02:35:00,
2013-05-23 19:40:00,55.5,47.3,30.06,NE,45,0.0,-999.0,74,0.00,,,0.04,Wunderground v.1.15,2013-05-24 02:40:00,
2013-05-23 19:45:00,55.0,47.2,30.06,NE,45,1.0,-999.0,75,0.00,,,0.04,Wunderground v.1.15,2013-05-24 02:45:00,
2013-05-23 19:50:00,55.0,47.2,30.06,NE,45,1.0,-999.0,75,0.00,,,0.04,Wunderground v.1.15,2013-05-24 02:50:00,
2013-05-23 19:55:00,55.0,47.2,30.06,NE,45,1.0,-999.0,75,0.00,,,0.04,Wunderground v.1.15,2013-05-24 02:55:00,
2013-05-23 20:00:00,55.0,47.2,30.06,NE,45,1.0,-999.0,75,0.00,,,0.04,Wunderground v.1.15,2013-05-24 03:00:00,
2013-05-23 20:05:00,55.0,47.2,30.06,NE,45,1.0,-999.0,75,0.00,,,0.04,Wunderground v.1.15,2013-05-24 03:05:00,
2013-05-23 20:10:00,55.0,47.2,30.06,NE,45,1.0,-999.0,75,0.00,,,0.04,Wunderground v.1.15,2013-05-24 03:10:00,
2013-05-23 20:15:00,54.6,47.5,30.07,NNE,23,0.0,-999.0,77,0.00,,,0.04,Wunderground v.1.15,2013-05-24 03:15:00,
2013-05-23 20:20:00,54.6,47.5,30.07,NNE,23,0.0,-999.0,77,0.00,,,0.04,Wunderground v.1.15,2013-05-24 03:20:00,
2013-05-23 20:25:00,54.6,47.5,30.07,NNE,23,0.0,-999.0,77,0.00,,,0.04,Wunderground v.1.15,2013-05-24 03:25:00,
2013-05-23 20:30:00,54.6,47.5,30.07,NNE,23,0.0,-999.0,77,0.00,,,0.04,Wunderground v.1.15,2013-05-24 03:30:00,
2013-05-23 20:35:00,54.6,47.5,30.07,NNE,23,0.0,-999.0,77,0.00,,,0.04,Wunderground v.1.15,2013-05-24 03:35:00,
2013-05-23 20:40:00,54.6,47.5,30.07,NNE,23,0.0,-999.0,77,0.00,,,0.04,Wunderground v.1.15,2013-05-24 03:40:00,
2013-05-23 20:45:00,54.4,47.0,30.08,NE,45,0.0,-999.0,76,0.00,,,0.04,Wunderground v.1.15,2013-05-24 03:45:00,
2013-05-23 20:50:00,54.4,47.0,30.08,NE,45,0.0,-999.0,76,0.00,,,0.04,Wunderground v.1.15,2013-05-24 03:50:00,
2013-05-23 20:55:00,54.4,47.0,30.08,NE,45,0.0,-999.0,76,0.00,,,0.04,Wunderground v.1.15,2013-05-24 03:55:00,
2013-05-23 21:00:00,54.4,47.0,30.08,NE,45,0.0,-999.0,76,0.00,,,0.04,Wunderground v.1.15,2013-05-24 04:00:00,
2013-05-23 21:05:00,54.4,47.0,30.08,NE,45,0.0,-999.0,76,0.00,,,0.04,Wunderground v.1.15,2013-05-24 04:05:00,
2013-05-23 21:10:00,54.4,47.0,30.08,NE,45,0.0,-999.0,76,0.00,,,0.04,Wunderground v.1.15,2013-05-24 04:10:00,
2013-05-23 21:15:00,54.2,47.5,30.09,N/A,-737280,0.0,-999.0,78,0.00,,,0.04,Wunderground v.1.15,2013-05-24 04:15:00,
2013-05-23 21:20:00,54.2,47.5,30.09,N/A,-737280,0.0,-999.0,78,0.00,,,0.04,Wunderground v.1.15,2013-05-24 04:20:00,
2013-05-23 21:25:00,54.2,47.5,30.09,N/A,-737280,0.0,-999.0,78,0.00,,,0.04,Wunderground v.1.15,2013-05-24 04:25:00,
2013-05-23 21:30:00,54.2,47.5,30.09,N/A,-737280,0.0,-999.0,78,0.00,,,0.04,Wunderground v.1.15,2013-05-24 04:30:00,
2013-05-23 21:35:00,54.2,47.5,30.09,N/A,-737280,0.0,-999.0,78,0.00,,,0.04,Wunderground v.1.15,2013-05-24 04:35:00,
2013-05-23 21:40:00,54.2,47.5,30.09,N/A,-737280,0.0,-999.0,78,0.00,,,0.04,Wunderground v.1.15,2013-05-24 04:40:00,
2013-05-23 21:45:00,53.9,47.5,30.08,East,90,0.0,-999.0,79,0.00,,,0.04,Wunderground v.1.15,2013-05-24 04:45:00,
2013-05-23 21:50:00,53.9,47.5,30.08,East,90,0.0,-999.0,79,0.00,,,0.04,Wunderground v.1.15,2013-05-24 04:50:00,
2013-05-23 21:55:00,53.9,47.5,30.08,East,90,0.0,-999.0,79,0.00,,,0.04,Wunderground v.1.15,2013-05-24 04:55:00,
2013-05-23 22:00:00,53.9,47.5,30.08,East,90,0.0,-999.0,79,0.00,,,0.04,Wunderground v.1.15,2013-05-24 05:00:00,
2013-05-23 22:05:00,53.9,47.5,30.08,East,90,0.0,-999.0,79,0.00,,,0.04,Wunderground v.1.15,2013-05-24 05:05:00,
2013-05-23 22:10:00,53.9,47.5,30.08,East,90,0.0,-999.0,79,0.00,,,0.04,Wunderground v.1.15,2013-05-24 05:10:00,
2013-05-23 22:15:00,53.4,47.7,30.08,N/A,-737280,0.0,-999.0,81,0.00,,,0.04,Wunderground v.1.15,2013-05-24 05:15:00,
2013-05-23 22:20:00,53.4,47.7,30.08,N/A,-737280,0.0,-999.0,81,0.00,,,0.04,Wunderground v.1.15,2013-05-24 05:20:00,
2013-05-23 22:25:00,53.4,47.7,30.08,N/A,-737280,0.0,-999.0,81,0.00,,,0.04,Wunderground v.1.15,2013-05-24 05:25:00,
2013-05-23 22:30:00,53.4,47.7,30.08,N/A,-737280,0.0,-999.0,81,0.00,,,0.04,Wunderground v.1.15,2013-05-24 05:30:00,
2013-05-23 22:35:00,53.4,47.7,30.08,N/A,-737280,0.0,-999.0,81,0.00,,,0.04,Wunderground v.1.15,2013-05-24 05:35:00,
2013-05-23 22:40:00,53.4,47.7,30.08,N/A,-737280,0.0,-999.0,81,0.00,,,0.04,Wunderground v.1.15,2013-05-24 05:40:00,
2013-05-23 22:45:00,52.9,47.6,30.07,N/A,-737280,0.0,-999.0,82,0.00,,,0.04,Wunderground v.1.15,2013-05-24 05:45:00,
2013-05-23 22:50:00,52.9,47.6,30.07,N/A,-737280,0.0,-999.0,82,0.00,,,0.04,Wunderground v.1.15,2013-05-24 05:50:00,
2013-05-23 22:55:00,52.9,47.6,30.07,N/A,-737280,0.0,-999.0,82,0.00,,,0.04,Wunderground v.1.15,2013-05-24 05:55:00,
2013-05-23 23:00:00,52.9,47.6,30.07,N/A,-737280,0.0,-999.0,82,0.00,,,0.04,Wunderground v.1.15,2013-05-24 06:00:00,
2013-05-23 23:05:00,52.9,47.6,30.07,N/A,-737280,0.0,-999.0,82,0.00,,,0.04,Wunderground v.1.15,2013-05-24 06:05:00,
2013-05-23 23:10:00,52.9,47.6,30.07,N/A,-737280,0.0,-999.0,82,0.00,,,0.04,Wunderground v.1.15,2013-05-24 06:10:00,
2013-05-23 23:15:00,52.4,47.1,30.07,N/A,-737280,0.0,-999.0,82,0.00,,,0.04,Wunderground v.1.15,2013-05-24 06:15:00,
2013-05-23 23:20:00,52.4,47.1,30.07,N/A,-737280,0.0,-999.0,82,0.00,,,0.04,Wunderground v.1.15,2013-05-24 06:20:00,
2013-05-23 23:25:00,52.4,47.1,30.07,N/A,-737280,0.0,-999.0,82,0.00,,,0.04,Wunderground v.1.15,2013-05-24 06:25:00,
2013-05-23 23:30:00,52.4,47.1,30.07,N/A,-737280,0.0,-999.0,82,0.00,,,0.04,Wunderground v.1.15,2013-05-24 06:30:00,
2013-05-23 23:35:00,52.4,47.1,30.07,N/A,-737280,0.0,-999.0,82,0.00,,,0.04,Wunderground v.1.15,2013-05-24 06:35:00,
2013-05-23 23:40:00,52.4,47.1,30.07,N/A,-737280,0.0,-999.0,82,0.00,,,0.04,Wunderground v.1.15,2013-05-24 06:40:00,
2013-05-23 23:45:00,51.9,46.6,30.07,N/A,-737280,0.0,-999.0,82,0.00,,,0.04,Wunderground v.1.15,2013-05-24 06:45:00,
2013-05-23 23:50:00,51.9,46.6,30.07,N/A,-737280,0.0,-999.0,82,0.00,,,0.04,Wunderground v.1.15,2013-05-24 06:50:00,
2013-05-23 23:55:00,51.9,46.6,30.07,N/A,-737280,0.0,-999.0,82,0.00,,,0.04,Wunderground v.1.15,2013-05-24 06:55:00,